Flag for Canada Weather past 2 weeks in Qikiqtarjuaq, Nunavut Territory, Canada

Now
37 °F

Fog.


Feels Like: 32 °F
Forecast: 37 / 43 °F
Wind: 7 mph from Northeast

Location: Broughton Island Airport

Current Time: Jul 22, 2014 at 6:42:39 PM

Latest Report: Jul 22, 2014 at 12:00 PM


Visibility: 2 mi

Pressure: 29.63 "Hg

Humidity: 100%

Dew point: 37 °F

Location of QikiqtarjuaqLocation

Historic Weather in Qikiqtarjuaq — Graph

°F

Qikiqtarjuaq temperature yesterday

Maximum temperature yesterday: 54 °F (at 12:00 PM)
Minimum temperature yesterday: 36 °F (at 9:02 PM)
Average temperature yesterday: 43 °F

Past Weeks' High & Low Weather Summary

 TemperatureHumidityPressure
High66 °F (Jul 20, 12:00 PM)100% (Jul 7, 3:00 PM)30.19 "Hg (Jul 7, 3:00 PM)
Low32 °F (Jul 7, 8:00 PM)32% (Jul 20, 2:00 PM)29.31 "Hg (Jul 20, 5:00 AM)
Average42 °F84%29.85 "Hg
* Reported Jul 7 12:00 Noon — Jul 22 12:00 Noon, Qikiqtarjuaq, Weather by CustomWeather, © 2014

Note: Actual official high and low records may vary slightly from our data, if they occured in-between our weather recording intervals... More about our weather records

Advertising

Qikiqtarjuaq weather history for previous 24 hours

 ConditionsComfort  
Time TempWeatherWind HumidityBarometerVisibility
12:00 PM
Jul 22
37 °FFog.7 mph100%29.63 "Hg2 mi
11:00 AM39 °FFog.8 mph93%29.63 "Hg15 mi
10:00 AM39 °FFog.7 mph93%29.63 "Hg2 mi
9:00 AM39 °FFog.6 mph93%29.63 "Hg8 mi
8:00 AM39 °FFog.7 mph93%29.63 "Hg15 mi
7:57 AM39 °FLow clouds.5 mph93%29.63 "Hg9 mi
7:00 AM37 °FMore clouds than sun.6 mph100%29.63 "Hg9 mi
6:00 AM41 °FOvercast.3 mph93%29.63 "Hg9 mi
5:00 AM37 °FLow clouds.No wind93%29.64 "Hg9 mi
4:00 AM37 °FCloudy.No wind93%29.65 "Hg9 mi
3:00 AM37 °FMostly cloudy.2 mph93%29.65 "Hg9 mi
2:59 AM37 °FMostly cloudy.2 mph93%29.65 "Hg9 mi
2:00 AM37 °FOvercast.2 mph93%29.65 "Hg9 mi
1:00 AM36 °FMostly cloudy.No wind100%29.66 "Hg9 mi
12:00 AM36 °FMostly cloudy.5 mph100%29.67 "Hg9 mi
11:54 PM
Jul 21
36 °FMore clouds than sun.5 mph100%29.67 "Hg9 mi
11:00 PM36 °FMostly cloudy.5 mph93%29.68 "Hg7 mi
10:00 PM36 °FLight rain. Low clouds.6 mph100%29.70 "Hg9 mi
9:02 PM36 °FMostly cloudy.8 mph93%29.70 "Hg9 mi
8:00 PM37 °FOvercast.12 mph93%29.70 "Hg9 mi
7:00 PM39 °FOvercast.13 mph87%29.71 "Hg9 mi
6:00 PM43 °FOvercast.3 mph87%29.72 "Hg9 mi
Weather by CustomWeather, © 2014

See weather overviewHow to use our weather pages